"Pseudo-MPEC" for or02688

Created 2024 Oct 2 4:22:17 UT using Find_Orb

Click here for an explanation of pseudo-MPECs

 
 Astrometry: 
     or02688*KC2024 09 28.05050 01 23 39.29 +07 50 10.9    ~9S77 20.9 GVNEOCPJ43
     or02688 KC2024 09 28.06185 01 23 32.15 +07 50 09.8    ~9S77 21.0 GVNEOCPJ43
     or02688 KC2024 09 28.07319 01 23 25.05 +07 50 09.3    ~9S77 20.9 GVNEOCPJ43

Station data:
(J43) Oukaïmeden Observatory, Marrakech  (N31.206437 W7.866460)  Morocco.
   Observer C. Rinner. Measurers C. Rinner, M. Ory. 0.5-m f/3 reflector + CCD.

Orbital elements:  or02688
   Perihelion 2024 Dec 5.70731 +/- 82.9 TT = 16:58:32 (JD 2460650.20731)
Epoch 2024 Sep 28.0 TT = JDT 2460581.5   Earth MOID: 0.1069   Ma: 0.0534
M 263.92718814 +/- 90               (J2000 ecliptic)             AutoNEOCP
n   1.39829088 +/- 0.683            Peri.  167.22455 +/- 59
a   0.79202282 +/- 0.258            Node     8.88611 +/- 24
e   0.8804168 +/- 0.218             Incl.   53.25896 +/- 51
P   0.705/257.452d         H 22.73  G  0.15   U 12.5  SR
q 0.09471260 +/- 0.402    Q 1.48933304 +/- 12.9
From 3 observations 2024 Sept. 28 (32.7 min); mean residual 0".14
Residuals in arcseconds: 
240928 J43  .10+  .10+    240928 J43  .20-  .21-    240928 J43  .09+  .10+    

Ephemerides (geocentric):
Date (UTC) HH   RA             Dec           delta  r     elong  mag " sig PA
---- --------  ------------   ------------  ------ ------ -----  --- --------
2024 10 02 04  00 33 15.378   +07 31 58.86  .23313 1.2336 176.1 20.3  39d  96
2024 10 02 05  00 32 39.550   +07 31 37.00  .23278 1.2332 176.1 20.3  40d  96
2024 10 02 06  00 32 03.618   +07 31 14.87  .23244 1.2329 176.1 20.3  40d  96
2024 10 02 07  00 31 27.580   +07 30 52.48  .23210 1.2325 176.1 20.3  40d  96
2024 10 02 08  00 30 51.439   +07 30 29.82  .23176 1.2322 176.1 20.3  40d  96
2024 10 02 09  00 30 15.192   +07 30 06.90  .23142 1.2318 176.1 20.3  40d  96
2024 10 02 10  00 29 38.842   +07 29 43.71  .23109 1.2315 176.0 20.3  40d  96
2024 10 02 11  00 29 02.387   +07 29 20.25  .23075 1.2311 176.0 20.3  40d  96
2024 10 02 12  00 28 25.828   +07 28 56.52  .23042 1.2308 175.9 20.3  40d  96
2024 10 02 13  00 27 49.166   +07 28 32.52  .23009 1.2304 175.9 20.3  40d  96
2024 10 02 14  00 27 12.400   +07 28 08.24  .22976 1.2300 175.8 20.3  40d  96
2024 10 02 15  00 26 35.530   +07 27 43.70  .22944 1.2297 175.8 20.3  40d  96
2024 10 02 16  00 25 58.558   +07 27 18.87  .22911 1.2293 175.7 20.3  40d  96
2024 10 02 17  00 25 21.482   +07 26 53.77  .22879 1.2290 175.6 20.3  40d  96
2024 10 02 18  00 24 44.304   +07 26 28.39  .22847 1.2286 175.5 20.3  41d  96
2024 10 02 19  00 24 07.023   +07 26 02.74  .22815 1.2283 175.4 20.3  41d  96
2024 10 02 20  00 23 29.640   +07 25 36.80  .22783 1.2279 175.3 20.3  41d  96
2024 10 02 21  00 22 52.154   +07 25 10.58  .22751 1.2276 175.2 20.3  41d  96
2024 10 02 22  00 22 14.567   +07 24 44.08  .22720 1.2272 175.1 20.3  41d  96
2024 10 02 23  00 21 36.878   +07 24 17.29  .22689 1.2268 174.9 20.3  41d  96
2024 10 03 00  00 20 59.088   +07 23 50.22  .22658 1.2265 174.8 20.3  41d  96
2024 10 03 01  00 20 21.197   +07 23 22.86  .22627 1.2261 174.7 20.3  41d  96
2024 10 03 02  00 19 43.205   +07 22 55.21  .22596 1.2258 174.5 20.3  41d  96
2024 10 03 03  00 19 05.113   +07 22 27.28  .22566 1.2254 174.4 20.3  41d  96
2024 10 03 04  00 18 26.920   +07 21 59.05  .22535 1.2250 174.3 20.3  41d  96
2024 10 03 05  00 17 48.628   +07 21 30.53  .22505 1.2247 174.1 20.3  41d  96
2024 10 03 06  00 17 10.235   +07 21 01.72  .22475 1.2243 174.0 20.3  41d  96
2024 10 03 07  00 16 31.744   +07 20 32.62  .22446 1.2240 173.8 20.3  41d  96
2024 10 03 08  00 15 53.154   +07 20 03.22  .22416 1.2236 173.7 20.3  41d  96
2024 10 03 09  00 15 14.465   +07 19 33.52  .22387 1.2232 173.5 20.4  41d  96
2024 10 03 10  00 14 35.677   +07 19 03.53  .22358 1.2229 173.3 20.4  41d  96
2024 10 03 11  00 13 56.792   +07 18 33.24  .22329 1.2225 173.2 20.4  41d  96
2024 10 03 12  00 13 17.809   +07 18 02.65  .22300 1.2222 173.0 20.4  42d  96
2024 10 03 13  00 12 38.729   +07 17 31.76  .22272 1.2218 172.8 20.4  42d  96
2024 10 03 14  00 11 59.552   +07 17 00.57  .22243 1.2214 172.7 20.4  42d  96
2024 10 03 15  00 11 20.279   +07 16 29.08  .22215 1.2211 172.5 20.4  42d  96
2024 10 03 16  00 10 40.910   +07 15 57.28  .22187 1.2207 172.3 20.4  42d  96
2024 10 03 17  00 10 01.445   +07 15 25.18  .22159 1.2203 172.2 20.4  42d  96
2024 10 03 18  00 09 21.884   +07 14 52.78  .22132 1.2200 172.0 20.4  42d  96
2024 10 03 19  00 08 42.229   +07 14 20.07  .22104 1.2196 171.8 20.4  42d  96
2024 10 03 20  00 08 02.480   +07 13 47.05  .22077 1.2193 171.6 20.4  42d  96
2024 10 03 21  00 07 22.636   +07 13 13.72  .22050 1.2189 171.4 20.4  42d  96
2024 10 03 22  00 06 42.699   +07 12 40.09  .22023 1.2185 171.3 20.4  42d  96
2024 10 03 23  00 06 02.669   +07 12 06.14  .21997 1.2182 171.1 20.4  42d  96
2024 10 04 00  00 05 22.546   +07 11 31.89  .21970 1.2178 170.9 20.4  42d  96
2024 10 04 01  00 04 42.331   +07 10 57.32  .21944 1.2174 170.7 20.4  42d  96
2024 10 04 02  00 04 02.024   +07 10 22.44  .21918 1.2171 170.5 20.4  42d  96
2024 10 04 03  00 03 21.627   +07 09 47.25  .21892 1.2167 170.3 20.4  42d  96